[Iaude] MPEC C16: 2024 BC5 [a=1.26,e=0.40,i=12.0,H=24.8]

mpec at marsden.cfa.harvard.edu mpec at marsden.cfa.harvard.edu
Thu Feb 1 16:57:53 EST 2024


M.P.E.C. 2024-C16                              Issued 2024 February 1, 21:56 UT

     The Minor Planet Electronic Circulars contain information on unusual
         minor planets, routine data on comets and natural satellites,
         and occasional editorial announcements.  They are published
    on behalf of Division F of the International Astronomical Union by the
          Minor Planet Center, Smithsonian Astrophysical Observatory,
                          Cambridge, MA 02138, U.S.A.
			  
             Prepared using the Tamkin Foundation Computer Network

                              MPC at CFA.HARVARD.EDU
            URL https://www.minorplanetcenter.net/    ISSN 1523-6714

                                    2024 BC5                                    


Observations:
     K24B05C* C2024 01 31.52275210 07 57.307-04 46 31.40         18.51oVEC016T05
     K24B05C  C2024 01 31.52591410 07 52.735-04 46 48.00         18.61oVEC016T05
     K24B05C  C2024 01 31.53134310 07 44.765-04 47 17.16         18.54oVEC016T05
     K24B05C  C2024 01 31.54647910 07 22.550-04 48 40.07         18.57oVEC016T05
     K24B05C KB2024 01 31.92048 09 59 36.41 -05 21 30.6          18.5 RZEC016106
     K24B05C KB2024 01 31.92321 09 59 32.98 -05 21 43.8          18.5 RZEC016106
     K24B05C KB2024 01 31.92594 09 59 29.56 -05 21 56.6          18.7 RZEC016106
     K24B05C KB2024 01 31.92882 09 59 25.95 -05 22 10.4          18.6 RZEC016106
     K24B05C EC2024 01 31.93198009 59 22.06 -05 22 25.7          18.8 GXEC016595
     K24B05C KC2024 01 31.96359009 58 42.62 -05 24 52.9          19.3 GXEC016595
     K24B05C KC2024 01 31.97186909 58 32.29 -05 25 31.1          19.3 GXEC016595
     K24B05C KC2024 01 31.97592009 58 27.22 -05 25 49.6          18.7 GXEC016595
     K24B05C KB2024 02 01.06660 09 56 36.96 -05 32 38.4          18.8 GVEC016204
     K24B05C KB2024 02 01.07110 09 56 31.53 -05 32 58.5                VEC016204
     K24B05C KB2024 02 01.07562 09 56 26.10 -05 33 18.0                VEC016204
     K24B05C KC2024 02 01.89334709 42 57.84 -06 25 01.8          18.9 GVEC016104
     K24B05C KC2024 02 01.89721109 42 54.24 -06 25 14.6          19.0 GVEC016104
     K24B05C KC2024 02 01.90107509 42 50.65 -06 25 27.0          18.6 GVEC016104

Observer details:
104 San Marcello Pistoiese.  Observers P. Bacci, M. Maestripieri.  Measurers
    P. Bacci, L. Tesi, G. Fagioli.  0.60-m F4 Reflector + CCD.
106 Crni Vrh.  Observer H. Mikuz.  0.60-m f/3.3 reflector + CMO.
204 Schiaparelli Observatory.  Observer L. Buzzi.  0.84-m f/3.5 reflector +
    CMO.
595 Farra d'Isonzo.  Observer E. Pettarin.  0.61-m f/4.5 reflector + CCD.
T05 ATLAS-HKO, Haleakala.  Observers L. Denneau, R. Siverd, J. Tonry, H.
    Weiland.  Measurers L. Denneau, N. Erasmus, A. Fitzsimmons, A. Lawrence,
    J. Robinson, R. Siverd, J. Tonry, H. Weiland.  0.5-m Reflector + CCD.

Orbital elements:
2024 BC5                                                 Earth MOID = 0.0065 AU
Epoch 2023 Sept. 13.0 TT = JDT 2460200.5                MPC                     
M 303.07801              (2000.0)            P               Q                  
n   0.69478953     Peri.   99.13226     +0.64850575     -0.74400204             
a   1.2625072      Node   309.17156     +0.59107370     +0.62540095             
e   0.3979780      Incl.   11.98137     +0.47965840     +0.23523313             
P   1.42           H   24.82          G   0.15           U   8                  
Residuals in seconds of arc
240131 T05  0.5-  0.6-    240131 106  0.1-  0.2+    240201 204  0.1-  0.2+
240131 T05  0.7+  0.1+    240131 106  0.0   0.0     240201 204  0.2-  0.1-
240131 T05  0.7+  0.6+    240131 595  0.3-  0.6-    240201 204  0.1-  0.2+
240131 T05  0.8-  0.2-    240131 595  0.8+  0.1+    240201 104  0.3+  0.3-
240131 106  0.1-  0.3+    240131 595  0.5+  0.2+    240201 104  0.0   0.1-
240131 106  0.2-  0.1+    240131 595  0.0   0.4+    240201 104  0.2-  0.3+

Ephemeris:
2024 BC5                 a,e,i = 1.26, 0.40, 12                  q = 0.7601
Date    TT    R. A. (2000) Decl.     Delta      r    Elong.  Phase     V
2024 01 02    19 50 19.1 +09 44 43   0.1890  0.8384    36.3   136.1    27.2
...
2024 01 17    19 19 52.9 +13 28 43   0.07635 0.9225    35.3   141.9    26.2
...
2024 01 25    17 02 37.9 +16 03 24   0.02396 0.9730    61.2   117.6    21.3
...
2024 01 31    10 21 10.9 -03 51 05   0.03154 1.0123   149.0    30.1    18.6
2024 02 01    09 57 57.3 -05 24 36   0.03778 1.0189   152.4    26.6    18.9
2024 02 02    09 41 19.7 -06 28 13   0.04432 1.0255   154.2    24.7    19.3
...
2024 02 08    08 56 46.8 -08 50 44   0.08639 1.0652   155.0    23.1    20.7
...
2024 02 16    08 39 30.7 -09 07 25   0.1462  1.1181   151.3    25.1    22.0
...
2024 03 02    08 34 42.2 -08 01 08   0.2681  1.2149   142.5    29.7    23.7

A. U. Tomatic                (C) Copyright 2024 MPC           M.P.E.C. 2024-C16





More information about the Iaude mailing list